Погода в Веневе

Россия / Тульская область     54°21′01″N   38°15′55″E
темп.,
°C
ветер,
м/с
пор.,
м/с
влажн.,
%
обл.,
%
осадки,
мм/ч
давл.,
гПа
погр.,
м
6 марта, сб
сб600:00−10зсз22870 0.0 101521
03:00−12з12870 0.0 101621
06:00−12зсз128852 0.0 101621
09:00−8ссз239576 0.3 1017150
12:00−6ссз348787 0.2 1017404
15:00−5сз358268 0.3 1016778
18:00−8з348820 0.0 101659
21:00−11з449114 0.0 101765
7 марта, вс
вс700:00−12зюз44900 0.0 101667
03:00−12юз510930 0.0 1014171
06:00−10юз7158937 0.0 1010368
09:00−7юз10178469 0.0 1006632
12:00−5юз121893100 0.2 10001075
15:00−3юз122093100 1.9 9951313
18:00−6з101781100 1.1 9961139
21:00−8зюз7187978 1.1 1000570
8 марта, пн
пн800:00−9зюз715800 0.0 999377
03:00−9юз7158633 0.0 997512
06:00−7з101586100 0.6 996880
09:00−9з8138996 0.6 999532
12:00−6зсз7984100 0.1 1001937
15:00−6зсз8128273 0.1 10031192
18:00−8зсз61286100 0.1 1005555
21:00−8зсз61291100 0.1 1007588
9 марта, вт
вт900:00−11зсз499592 0.1 1010223
03:00−13зсз489685 0.1 1012176
06:00−16сз489769 0.0 1014151
09:00−15сз589472 0.0 1016387
12:00−12сз5790100 0.0 1017542
15:00−11зсз5786100 0.1 1018748
18:00−13зсз3690100 0.0 1018100
21:00−15з349180 0.0 101954
10 марта, ср
ср1000:00−12юз4896100 0.2 1018238
03:00−7з71492100 0.9 1016721
06:00−9ссз4795100 0.2 1016306
09:00−12св2294100 0.5 1017126
12:00−9в2293100 0.6 1017189
15:00−7вюв2294100 1.3 1016233
18:00−7з1593100 0.6 1016226
21:00−10зюз469076 0.6 101690